GSAT0203 (GALILEO 7) (40544 NORAD) Tracking and Keplerian Element Data

This shows tracking and keplerian element data for the satellite.

Feedback or suggestion? Click here.




ElementValue
Catalog40544
NameGSAT0203 (GALILEO 7)
Epoch Orbit5406
Epoch Day11.12452281
Epoch Year2024
RAAN5.7647
Inclination56.9186
Eccentricity0.0005465
Argument of Perigee271.5034
Mean Anonmoly88.4488
Mean Motion1.70475757
Decay Rate-6.1E-07
L11 40544U 15017A 24011.12452281 -.00000061 00000+0 00000+0 0 9990
L22 40544 56.9186 5.7647 0005465 271.5034 88.4488 1.70475757 54063



Live tracking and technical data element details for GSAT0203 (GALILEO 7) (NORAD 40544). GSAT0203 (GALILEO 7) can be tracked NOW for your location showing map with azimuth and elevation plus other details from your city location.







IsCatalogInMostPopularTable: catalog: 40544, numindb: 728
Update: records affected: 1



GetName: 40544 GSAT0203 (GALILEO 7)

Hit Count: updated at: Fri, 19 Apr 2024 13:11:57 GMT